Total_Precipitation_Accumulation
0.22 0.50 1.03 1.55 2.69 2.94 2.11 1.18 0.82 0.70 0.66 0.67 0.63 0.61 0.75 1.02 1.55 2.59 2.43 1.82 1.64 1.96 2.62 3.44 3.78 3.18 2.82 2.81 2.75 2.88 2.85 2.79 3.02 3.27 3.28 3.22 3.33 3.62 3.66 3.60 3.63 3.86 3.78 3.44 3.26 3.02 2.75 2.90 2.99
0.43 0.84 1.41 2.13 3.14 2.69 1.88 0.97 0.67 0.60 0.54 0.57 0.59 0.50 0.54 0.66 0.68 1.17 1.69 1.79 1.61 1.66 2.05 2.58 3.05 2.68 2.49 2.46 2.58 2.71 2.74 2.73 2.88 3.00 3.16 3.27 3.34 3.66 3.83 3.70 3.78 4.03 3.70 3.42 3.21 2.93 2.72 2.75 2.60
0.72 1.18 1.85 2.70 2.38 1.70 1.33 0.79 0.58 0.56 0.67 0.79 0.85 0.60 0.62 0.95 0.89 1.15 1.38 1.39 1.46 1.55 1.83 2.29 2.47 2.40 2.33 2.32 2.55 2.70 2.77 2.73 2.84 3.01 3.15 3.36 3.57 3.73 3.95 3.91 3.99 4.08 3.93 3.55 3.20 3.06 2.88 2.66 2.42
0.94 1.51 2.00 2.25 1.39 0.80 0.70 0.57 0.54 0.62 0.93 1.03 0.98 0.91 0.87 0.93 0.91 1.03 1.03 1.09 1.35 1.62 1.85 2.07 2.23 2.21 2.27 2.26 2.55 2.77 2.91 2.82 2.83 3.06 3.12 3.32 3.65 4.00 4.24 4.18 4.25 4.28 4.11 3.68 3.28 3.05 2.82 2.60 2.43
1.08 1.83 2.49 1.93 0.91 0.58 0.47 0.38 0.40 0.56 0.83 1.09 1.01 1.19 1.40 1.30 1.02 0.91 0.90 1.06 1.26 1.57 1.91 2.00 2.20 2.29 2.45 2.55 2.73 2.91 2.93 2.79 2.78 2.87 2.84 3.05 3.61 4.00 4.23 4.34 4.35 4.31 4.12 3.74 3.37 2.99 2.74 2.57 2.51
1.54 2.38 2.17 1.37 0.88 0.51 0.39 0.34 0.41 0.58 0.80 1.01 1.14 1.36 1.64 1.51 1.19 1.03 1.00 1.19 1.31 1.41 1.79 2.02 2.37 2.47 2.54 2.71 3.04 3.20 2.97 2.87 2.82 2.88 2.81 2.98 3.34 3.79 4.09 4.38 4.45 4.24 4.03 3.64 3.37 3.08 2.82 2.63 2.60
1.60 2.09 1.61 1.04 0.77 0.52 0.37 0.36 0.45 0.59 0.74 1.00 1.24 1.48 1.63 1.77 1.50 1.21 1.31 1.38 1.68 1.46 1.64 1.95 2.37 2.58 2.71 2.83 3.10 3.23 3.23 3.18 3.13 3.09 2.95 3.05 3.35 3.73 4.13 4.44 4.40 4.32 4.24 3.87 3.57 3.18 2.89 2.79 2.69
1.16 1.27 1.07 0.82 0.66 0.49 0.33 0.33 0.42 0.57 0.89 1.08 1.14 1.46 1.72 1.61 1.54 1.49 1.61 1.67 1.85 1.82 1.72 1.83 2.22 2.64 2.78 2.82 3.08 3.32 3.31 3.26 3.28 3.32 3.24 3.46 3.66 3.78 4.02 4.27 4.54 4.58 4.48 4.18 3.85 3.39 3.11 3.02 2.73
0.82 1.18 1.03 0.66 0.50 0.46 0.37 0.40 0.43 0.48 0.74 0.90 1.02 1.11 1.09 1.18 1.48 1.56 1.77 1.99 2.09 2.09 2.05 2.08 2.12 2.26 2.46 2.55 2.83 3.45 3.48 3.39 3.44 3.65 3.78 4.06 4.48 4.54 4.63 4.52 4.83 4.95 4.80 4.69 4.35 3.92 3.50 3.27 2.92
0.69 0.89 0.68 0.37 0.30 0.33 0.33 0.37 0.46 0.58 0.92 1.29 1.36 1.52 1.28 1.36 1.56 1.56 1.63 1.79 2.05 2.19 2.20 2.43 2.28 2.18 2.29 2.29 3.12 4.03 3.94 3.84 3.95 4.15 4.27 4.75 5.02 5.40 4.90 5.29 5.62 5.72 5.68 5.56 5.31 5.01 4.23 3.41 2.89
0.42 0.43 0.31 0.21 0.19 0.19 0.27 0.31 0.30 0.53 1.04 1.50 1.61 1.75 1.64 1.64 1.70 1.75 1.87 2.00 2.28 2.46 2.30 2.26 2.39 2.52 2.58 2.73 3.14 3.65 4.14 4.26 4.35 4.32 4.35 4.70 4.66 4.94 5.12 5.58 6.38 6.50 5.97 5.57 5.75 5.58 4.48 3.87 3.79
0.25 0.20 0.18 0.17 0.16 0.19 0.25 0.30 0.35 0.52 1.08 1.41 1.30 1.31 1.43 1.71 1.87 1.99 2.35 2.59 2.90 3.04 2.99 3.02 3.00 3.03 3.12 2.98 2.99 3.16 3.47 3.56 3.64 3.90 4.02 4.21 4.65 4.87 5.10 5.59 5.74 5.83 5.65 5.95 5.84 5.68 5.00 4.53 4.05
0.23 0.18 0.15 0.16 0.17 0.18 0.24 0.35 0.44 0.59 0.95 1.06 0.93 1.00 1.52 1.79 2.04 2.41 2.61 2.86 3.15 3.54 3.74 4.36 4.30 3.80 3.57 3.40 3.32 3.02 3.23 3.04 2.90 3.20 3.66 3.81 4.14 4.52 4.83 4.83 4.93 4.71 5.00 5.40 5.65 5.14 5.14 4.92 4.66
0.14 0.16 0.18 0.20 0.20 0.22 0.27 0.35 0.62 0.73 0.84 0.91 0.92 1.25 1.76 2.26 2.43 2.75 3.09 3.54 3.91 4.37 4.35 4.59 5.13 4.55 3.96 3.53 3.46 3.31 3.09 3.11 2.96 3.15 3.25 3.61 3.76 3.91 4.14 4.19 4.33 4.21 4.42 4.68 4.74 4.66 5.03 4.99 4.81
0.15 0.21 0.33 0.31 0.30 0.31 0.39 0.68 0.90 0.95 0.90 1.09 1.21 1.47 2.07 2.77 2.72 3.02 3.38 3.92 4.44 4.91 5.02 5.09 5.39 5.13 4.75 4.26 3.79 3.48 3.33 3.11 3.15 3.28 3.17 3.27 3.46 3.57 3.64 3.73 3.83 3.94 3.90 4.07 4.17 4.26 4.56 4.69 4.65
0.23 0.37 0.51 0.41 0.31 0.35 0.51 1.15 1.18 1.02 1.01 1.24 1.45 1.70 2.26 2.98 3.05 3.35 3.80 4.32 5.00 5.45 5.73 5.80 5.52 5.58 5.36 4.82 4.36 4.08 3.85 3.67 3.55 3.22 3.08 2.91 2.97 2.97 3.10 3.07 3.09 3.32 3.43 3.63 3.95 4.06 4.37 4.67 4.75
0.33 0.47 0.55 0.46 0.34 0.35 0.46 1.02 1.04 0.80 1.05 1.31 1.56 1.88 2.28 2.66 3.14 3.71 4.18 4.72 5.59 6.50 6.96 6.79 6.23 5.95 5.62 5.11 4.68 4.57 4.47 4.19 3.90 3.73 3.52 3.24 2.91 2.78 2.87 2.99 3.10 2.84 3.03 3.30 3.20 3.77 4.09 4.49 4.60
0.22 0.30 0.46 0.49 0.34 0.40 0.53 0.67 0.87 0.89 1.10 1.36 1.57 1.75 2.13 2.40 2.77 3.49 4.08 4.72 5.64 6.81 7.50 7.41 6.78 6.06 5.51 5.18 4.89 4.89 4.67 4.28 3.87 3.76 3.74 3.40 3.22 2.92 2.99 2.88 2.69 2.48 2.78 3.20 3.39 3.93 4.04 4.02 4.07
0.14 0.22 0.30 0.36 0.30 0.42 0.58 0.70 0.88 1.04 1.27 1.38 1.51 1.61 1.86 2.15 2.54 3.29 3.98 4.47 5.09 5.89 6.41 6.31 5.70 5.31 4.90 4.44 3.99 4.07 4.00 3.77 3.56 3.38 3.26 3.32 3.24 3.09 3.19 2.87 3.02 2.64 2.72 2.89 3.04 3.46 3.72 3.65 3.61
0.13 0.20 0.27 0.31 0.26 0.29 0.52 0.84 0.98 1.06 1.26 1.25 1.31 1.39 1.59 1.99 2.64 3.42 4.00 4.11 4.09 4.34 4.58 4.08 3.91 3.98 3.71 3.56 3.57 3.57 3.49 3.21 3.08 3.14 3.46 3.12 3.12 3.03 2.83 2.97 2.73 2.68 2.95 2.99 3.13 3.44 3.58 3.51 3.59
0.15 0.17 0.21 0.30 0.30 0.39 0.62 1.11 1.31 1.15 1.20 1.15 1.19 1.41 1.87 2.29 2.72 3.23 3.38 3.35 3.19 3.14 3.10 2.89 2.87 3.29 3.31 3.42 3.49 3.52 3.56 3.40 3.27 3.18 3.42 3.04 2.78 2.73 2.81 2.76 2.82 3.01 2.71 3.02 3.24 3.25 3.53 3.63 3.50
0.15 0.13 0.11 0.15 0.27 0.57 0.77 1.38 1.64 1.44 1.36 1.11 1.24 1.69 2.13 2.44 2.70 2.73 2.30 2.12 2.17 2.25 2.35 2.61 2.77 3.02 2.97 3.17 3.18 3.13 2.93 2.81 2.78 2.81 3.01 3.06 2.75 2.61 2.61 2.75 3.09 3.24 2.95 3.23 2.77 2.96 3.35 3.59 3.51
0.10 0.12 0.11 0.15 0.30 0.66 0.94 1.43 1.76 1.62 1.37 1.13 1.13 1.19 1.61 1.78 1.76 1.70 1.58 1.52 1.68 1.95 2.18 2.52 2.72 2.86 2.82 2.85 2.98 3.21 3.14 3.15 3.02 2.96 3.24 3.26 3.28 3.04 2.71 2.74 3.04 3.22 3.20 3.31 3.13 3.37 3.15 3.10 3.13
0.09 0.15 0.24 0.32 0.51 1.12 1.22 1.30 1.71 1.54 1.28 1.14 0.99 0.91 1.15 1.24 1.14 1.26 1.35 1.52 1.76 1.91 1.98 2.20 2.42 2.73 2.76 2.75 2.84 2.94 3.10 3.38 3.36 3.30 3.15 2.98 3.09 3.02 2.77 2.79 3.18 3.21 3.19 3.33 3.19 3.18 3.06 3.09 3.12
0.08 0.16 0.44 0.86 1.18 1.35 1.03 1.14 1.53 1.16 0.92 0.85 0.78 0.74 0.83 0.92 1.04 1.22 1.37 1.57 1.65 1.70 1.68 1.83 1.95 2.21 2.48 2.58 2.64 2.78 3.00 3.19 3.18 3.26 3.20 3.03 2.77 2.63 2.71 2.84 3.20 3.16 3.13 3.07 3.15 3.12 3.14 3.22 3.26
0.08 0.11 0.25 0.44 0.59 0.79 0.97 1.42 1.55 1.09 0.73 0.60 0.62 0.66 0.71 0.87 0.99 1.05 1.22 1.29 1.37 1.55 1.71 1.87 1.89 1.92 2.03 2.13 2.33 2.51 2.60 2.78 2.83 3.18 3.05 2.95 2.77 2.61 2.68 2.80 2.75 2.74 2.84 2.73 3.09 2.92 2.90 3.01 3.07
0.07 0.07 0.09 0.14 0.22 0.56 1.11 1.35 1.31 0.94 0.74 0.74 0.81 0.86 0.85 0.85 0.97 0.96 0.97 1.18 1.30 1.26 1.34 1.54 1.67 1.78 1.91 2.02 2.19 2.20 2.22 2.34 2.59 2.66 2.52 2.36 2.44 2.55 2.63 2.63 2.69 2.72 2.72 2.77 3.03 2.91 2.95 3.15 2.96
0.08 0.08 0.09 0.13 0.25 0.48 0.92 1.48 1.67 1.31 0.98 0.87 1.00 0.93 0.83 0.81 0.89 0.97 0.98 1.06 1.16 1.19 1.34 1.43 1.57 1.75 1.85 1.92 2.04 1.92 1.97 2.04 2.29 2.40 2.40 2.29 2.20 2.36 2.49 2.56 2.66 2.72 2.68 2.78 2.97 2.79 2.99 3.08 2.98
0.09 0.10 0.11 0.16 0.18 0.31 0.71 1.10 1.04 1.10 0.99 0.85 0.86 0.84 0.79 0.74 0.79 0.91 0.94 1.05 1.09 1.10 1.26 1.44 1.63 1.78 1.75 1.80 1.85 1.93 2.01 2.16 2.24 2.20 2.24 2.26 2.30 2.42 2.51 2.60 2.67 2.68 2.70 2.85 2.95 2.78 2.95 2.92 3.02
0.12 0.12 0.14 0.17 0.20 0.21 0.41 0.68 0.64 0.71 0.90 1.15 1.07 0.88 0.89 0.92 0.86 0.93 0.94 0.98 0.99 1.04 1.14 1.32 1.55 1.72 1.81 1.84 1.96 2.09 2.16 2.25 2.32 2.20 2.28 2.45 2.48 2.54 2.63 2.73 2.80 2.67 2.77 2.92 2.83 2.80 2.87 2.92 2.88